Kokomo, IN

2:16 AM EDT on September 26, 2017 (GMT -0400)
Kokomo Municipal

Weather History for KOKK - March, 2013

Change the Weather History Date:

Friday, March 1, 2013

  Actual Average (KGUS) Record (KGUS)
Temperature  
Mean Temperature 30 °F -  
Max Temperature 33 °F 39 °F 64 °F (1997)
Min Temperature 28 °F 25 °F 11 °F (2015)
Degree Days  
Heating Degree Days 34    
Moisture  
Dew Point 27 °F    
Average Humidity 84    
Maximum Humidity 100    
Minimum Humidity 69    
Precipitation  
Precipitation 0.00 in - - ()
Sea Level Pressure  
Sea Level Pressure 30.02 in    
Wind  
Wind Speed 9 mph (NNE)    
Max Wind Speed 13 mph    
Max Gust Speed -    
Visibility 8 miles    
Events      
Averages and records for this station are not official NWS values.
T = Trace of Precipitation, MM = Missing Value Source: NWS Daily Summary

Daily Weather History Graph

Daily Weather History Graph

Search for Another Location

Airport or City:

Trip Planner

Search our weather history database for the weather conditions in past years. The results will help you decide how hot, cold, wet, or windy it might be!

Date:

Astronomy

Mar. 01, 2013 Rise Set
Actual Time 6:17 AM CST 5:36 PM CST
Civil Twilight 5:50 AM CST 6:03 PM CST
Nautical Twilight 5:18 AM CST 6:35 PM CST
Astronomical Twilight 4:47 AM CST 7:06 PM CST
Moon 10:10 PM CST (3/1) 8:02 AM CST (3/1)
Length of Visible Light 12h 13m
Length of Day
11h 18m
Waning Gibbous, 83% of the Moon is Illuminated
Mar 1
Waning Gibbous
Mar 4
Last Quarter
Mar 11
New
Mar 19
First Quarter
Mar 27
Full

Hourly Weather History & Observations

Time (CST) Temp. Windchill Dew Point Humidity Pressure Visibility Wind Dir Wind Speed Gust Speed Precip Events Conditions
12:15 AM 32.0 °F 24.8 °F 28.4 °F 87% 29.96 in 10.0 mi NW 8.1 mph - N/A   Overcast
12:35 AM 32.0 °F 24.2 °F 28.4 °F 87% 29.96 in 10.0 mi NW 9.2 mph - N/A   Overcast
12:55 AM 32.0 °F 24.2 °F 26.6 °F 80% 29.96 in 10.0 mi NNW 9.2 mph - N/A   Overcast
1:15 AM 32.0 °F 23.6 °F 28.4 °F 87% 29.96 in 10.0 mi NNW 10.4 mph - N/A   Overcast
1:35 AM 30.2 °F 20.8 °F 28.4 °F 93% 29.96 in 10.0 mi NNW 11.5 mph - N/A   Overcast
2:15 AM 30.2 °F 21.9 °F 28.4 °F 93% 29.95 in 10.0 mi NNW 9.2 mph - N/A   Overcast
2:35 AM 30.2 °F 21.3 °F 28.4 °F 93% 29.95 in 10.0 mi NNW 10.4 mph - N/A   Overcast
2:55 AM 30.2 °F 21.9 °F 26.6 °F 86% 29.95 in 9.0 mi NNW 9.2 mph - N/A   Overcast
3:55 AM 30.2 °F 22.6 °F 28.4 °F 93% 29.96 in 3.0 mi NNW 8.1 mph - N/A   Overcast
4:15 AM 30.2 °F 21.9 °F 30.2 °F 100% 29.96 in 3.0 mi NNW 9.2 mph - N/A   Overcast
4:35 AM 30.2 °F 21.9 °F 28.4 °F 93% 29.96 in 4.0 mi NNW 9.2 mph - N/A   Overcast
4:55 AM 30.2 °F 23.4 °F 30.2 °F 100% 29.97 in 3.0 mi NNW 6.9 mph - N/A   Overcast
5:15 AM 30.2 °F 23.4 °F 28.4 °F 93% 29.97 in 3.0 mi NNW 6.9 mph - N/A   Overcast
5:35 AM 30.2 °F 22.6 °F 30.2 °F 100% 29.97 in 3.0 mi NNW 8.1 mph - N/A   Overcast
6:15 AM 30.2 °F 23.4 °F 30.2 °F 100% 29.97 in 3.0 mi North 6.9 mph - N/A   Overcast
6:35 AM 30.2 °F 22.6 °F 28.4 °F 93% 29.98 in 1.8 mi North 8.1 mph - N/A   Overcast
6:55 AM 30.2 °F 22.6 °F 28.4 °F 93% 29.99 in 1.8 mi North 8.1 mph - N/A   Overcast
7:15 AM 30.2 °F 22.6 °F 28.4 °F 93% 29.99 in 1.8 mi NNE 8.1 mph - N/A   Overcast
7:35 AM 30.2 °F 21.3 °F 30.2 °F 100% 30.00 in 2.0 mi NNE 10.4 mph - N/A   Overcast
7:55 AM 30.2 °F 21.9 °F 28.4 °F 93% 30.01 in 2.0 mi NE 9.2 mph - N/A   Overcast
8:15 AM 30.2 °F 22.6 °F 28.4 °F 93% 30.01 in 5.0 mi NE 8.1 mph - N/A   Overcast
8:35 AM 30.2 °F 22.6 °F 30.2 °F 100% 30.00 in 3.0 mi NE 8.1 mph - N/A   Overcast
8:55 AM 30.2 °F 21.3 °F 30.2 °F 100% 30.01 in 3.0 mi NE 10.4 mph - N/A   Overcast
9:15 AM 30.2 °F 21.9 °F 28.4 °F 93% 30.01 in 4.0 mi NE 9.2 mph - N/A   Overcast
9:35 AM 32.0 °F 25.6 °F 28.4 °F 87% 30.01 in 5.0 mi NE 6.9 mph - N/A   Overcast
9:55 AM 30.2 °F 21.3 °F 28.4 °F 93% 30.02 in 9.0 mi NE 10.4 mph - N/A   Overcast
10:15 AM 30.2 °F 20.2 °F 28.4 °F 93% 30.02 in 10.0 mi ENE 12.7 mph - N/A   Overcast
10:35 AM 32.0 °F 23.0 °F 28.4 °F 87% 30.02 in 10.0 mi NE 11.5 mph - N/A   Overcast
11:15 AM 32.0 °F 23.6 °F 28.4 °F 87% 30.03 in 10.0 mi NE 10.4 mph - N/A   Overcast
11:35 AM 33.8 °F 25.3 °F 28.4 °F 81% 30.03 in 10.0 mi NNE 11.5 mph - N/A   Overcast
12:15 PM 33.8 °F 25.8 °F 28.4 °F 81% 30.03 in 10.0 mi NE 10.4 mph - N/A   Overcast
12:35 PM 33.8 °F 26.4 °F 28.4 °F 81% 30.02 in 10.0 mi NE 9.2 mph - N/A   Overcast
12:55 PM 33.8 °F 26.4 °F 26.6 °F 75% 30.02 in 10.0 mi NNE 9.2 mph - N/A   Overcast
1:15 PM 33.8 °F 25.8 °F 28.4 °F 81% 30.01 in 10.0 mi NNE 10.4 mph - N/A   Overcast
1:35 PM 33.8 °F 25.8 °F 26.6 °F 75% 30.02 in 10.0 mi NNE 10.4 mph - N/A   Overcast
1:55 PM 33.8 °F 26.4 °F 26.6 °F 75% 30.01 in 10.0 mi NNE 9.2 mph - N/A   Overcast
2:15 PM 33.8 °F 26.4 °F 28.4 °F 81% 30.02 in 10.0 mi NNE 9.2 mph - N/A   Overcast
2:35 PM 33.8 °F 27.0 °F 26.6 °F 75% 30.02 in 10.0 mi NNE 8.1 mph - N/A   Overcast
2:55 PM 33.8 °F 27.0 °F 26.6 °F 75% 30.02 in 10.0 mi NE 8.1 mph - N/A   Overcast
3:15 PM 33.8 °F 27.0 °F 26.6 °F 75% 30.02 in 10.0 mi NE 8.1 mph - N/A   Overcast
3:35 PM 33.8 °F 27.0 °F 24.8 °F 70% 30.02 in 10.0 mi NE 8.1 mph - N/A   Overcast
3:55 PM 33.8 °F 26.4 °F 26.6 °F 75% 30.02 in 10.0 mi NNE 9.2 mph - N/A   Overcast
4:15 PM 33.8 °F 27.0 °F 24.8 °F 70% 30.03 in 10.0 mi NNE 8.1 mph - N/A   Overcast
4:35 PM 33.8 °F 26.4 °F 26.6 °F 75% 30.03 in 10.0 mi NNE 9.2 mph - N/A   Overcast
4:55 PM 33.8 °F 27.0 °F 24.8 °F 70% 30.04 in 10.0 mi NNE 8.1 mph - N/A   Overcast
5:15 PM 32.0 °F 23.6 °F 24.8 °F 75% 30.04 in 10.0 mi NNE 10.4 mph - N/A   Overcast
5:35 PM 32.0 °F 25.6 °F 26.6 °F 80% 30.05 in 10.0 mi NE 6.9 mph - N/A   Overcast
5:55 PM 32.0 °F 25.6 °F 24.8 °F 75% 30.05 in 10.0 mi NE 6.9 mph - N/A   Overcast
6:15 PM 32.0 °F 25.6 °F 24.8 °F 75% 30.06 in 10.0 mi NNE 6.9 mph - N/A   Overcast
6:35 PM 30.2 °F 22.6 °F 26.6 °F 86% 30.06 in 10.0 mi NE 8.1 mph - N/A   Overcast
6:55 PM 30.2 °F 22.6 °F 24.8 °F 80% 30.06 in 10.0 mi NE 8.1 mph - N/A   Overcast
7:15 PM 30.2 °F 23.4 °F 24.8 °F 80% 30.07 in 10.0 mi NE 6.9 mph - N/A   Overcast
7:35 PM 30.2 °F 22.6 °F 24.8 °F 80% 30.07 in 10.0 mi NE 8.1 mph - N/A   Overcast
8:15 PM 30.2 °F 21.9 °F 23.0 °F 75% 30.07 in 10.0 mi NE 9.2 mph - N/A   Overcast
8:35 PM 30.2 °F 22.6 °F 24.8 °F 80% 30.08 in 10.0 mi NE 8.1 mph - N/A   Overcast
8:55 PM 28.4 °F 20.4 °F 23.0 °F 80% 30.08 in 10.0 mi NE 8.1 mph - N/A   Overcast
9:15 PM 28.4 °F 19.1 °F 23.0 °F 80% 30.08 in 10.0 mi NE 10.4 mph - N/A   Overcast
9:35 PM 28.4 °F 18.5 °F 21.2 °F 74% 30.08 in 10.0 mi NE 11.5 mph - N/A   Overcast
9:55 PM 28.4 °F 19.7 °F 21.2 °F 74% 30.08 in 10.0 mi NNE 9.2 mph - N/A   Overcast
10:15 PM 28.4 °F 19.1 °F 21.2 °F 74% 30.08 in 10.0 mi NE 10.4 mph - N/A   Overcast
10:35 PM 28.4 °F 18.5 °F 23.0 °F 80% 30.08 in 10.0 mi NNE 11.5 mph - N/A   Overcast
10:55 PM 28.4 °F 18.5 °F 21.2 °F 74% 30.08 in 10.0 mi NE 11.5 mph - N/A   Overcast
11:15 PM 28.4 °F 19.7 °F 19.4 °F 69% 30.08 in 10.0 mi NE 9.2 mph - N/A   Overcast
11:35 PM 28.4 °F 19.1 °F 21.2 °F 74% 30.08 in 10.0 mi NNE 10.4 mph - N/A   Overcast